GW4240 Weather Reports


Display with metric or nautical units.
time (UTC)temp
F
wind
direction
speed
MPH
gust
MPH
rain 1hr
in
rain 24hr
in
rain mn
in
humidity
%
barometer
mb
20260504050524 56 322 0.0 1.0 0.00 0.00 0.00 87 1009.2
20260504045521 56 298 1.0 1.0 0.00 0.00 0.00 87 1009.2
20260504045023 56 298 1.0 1.0 0.00 0.00 0.00 86 1009.3
20260504044536 56 318 1.0 1.0 0.00 0.00 0.00 86 1009.3
20260504044022 56 319 1.0 2.0 0.00 0.00 0.00 87 1009.4
20260504043521 57 319 1.0 2.0 0.00 0.00 0.00 86 1009.2
20260504043046 57 245 1.0 1.0 0.00 0.00 0.00 85 1009.3
20260504042521 57 246 0.0 1.0 0.00 0.00 0.00 84 1009.3
20260504042022 57 246 1.0 2.0 0.00 0.00 0.00 84 1009.3
20260504041538 57 246 1.0 2.0 0.00 0.00 0.00 83 1009.3
20260504041022 58 238 0.0 1.0 0.00 0.00 0.00 83 1009.3
20260504040521 58 0 0.0 0.0 0.00 0.00 0.00 83 1009.2
20260504040045 58 0 0.0 1.0 0.00 0.00 0.00 82 1009.3
20260504035522 59 0 0.0 1.0 0.00 0.00 0.00 81 1009.2
20260504035024 59 238 1.0 1.0 0.00 0.00 0.00 80 1009.2
20260504034540 60 238 1.0 1.0 0.00 0.00 0.00 79 1009.2
20260504034023 60 237 0.0 1.0 0.00 0.00 0.00 78 1009.2
20260504033520 60 0 0.0 0.0 0.00 0.00 0.00 77 1009.2
20260504033041 61 0 0.0 1.0 0.00 0.00 0.00 76 1009.3
20260504032521 62 0 0.0 2.0 0.00 0.00 0.00 75 1009.3
20260504032022 62 0 0.0 2.0 0.00 0.00 0.00 74 1009.3
20260504031540 63 238 0.0 2.0 0.00 0.00 0.00 73 1009.4
20260504031021 64 176 0.0 2.0 0.00 0.00 0.00 72 1009.4
20260504030521 65 207 0.0 2.0 0.00 0.00 0.00 71 1009.3
20260504030044 65 236 0.0 2.0 0.00 0.00 0.00 70 1009.2
20260504025525 65 153 0.0 2.0 0.00 0.00 0.00 70 1009.4
20260504025020 66 210 0.0 2.0 0.00 0.00 0.00 70 1009.4
20260504024544 66 158 1.0 2.0 0.00 0.00 0.00 69 1009.3
20260504024021 66 162 1.0 3.0 0.00 0.00 0.00 69 1009.4
20260504023524 66 143 1.0 4.0 0.00 0.00 0.00 70 1009.3
20260504023041 66 156 1.0 5.0 0.00 0.00 0.00 69 1009.4
20260504022521 66 224 2.0 5.0 0.00 0.00 0.00 69 1009.4
20260504022020 66 174 2.0 4.0 0.00 0.00 0.00 68 1009.4
20260504021539 67 165 2.0 4.0 0.00 0.00 0.00 68 1009.5
20260504021023 68 158 2.0 4.0 0.00 0.00 0.00 67 1009.4
20260504020520 68 165 1.0 4.0 0.00 0.00 0.00 67 1009.5
20260504020037 69 171 0.0 3.0 0.00 0.00 0.00 66 1009.5
20260504015523 69 223 1.0 3.0 0.00 0.00 0.00 66 1009.6
20260504015024 69 211 1.0 3.0 0.00 0.00 0.00 66 1009.7
20260504014540 69 176 1.0 3.0 0.00 0.00 0.00 66 1009.7
20260504014020 69 171 1.0 3.0 0.00 0.00 0.00 67 1009.8
20260504013523 68 235 1.0 3.0 0.00 0.00 0.00 70 1009.7
20260504013052 67 155 2.0 4.0 0.00 0.00 0.00 70 1009.7
20260504012524 68 142 1.0 4.0 0.00 0.00 0.00 70 1009.9
20260504012023 68 164 2.0 4.0 0.00 0.00 0.00 69 1009.8
20260504011540 68 185 1.0 4.0 0.00 0.00 0.00 70 1009.9
20260504011019 68 163 2.0 4.0 0.00 0.00 0.00 69 1010.1
20260504010523 69 195 2.0 4.0 0.00 0.00 0.00 66 1010.1
20260504010046 71 153 2.0 4.0 0.00 0.00 0.00 65 1010.1
20260504005521 70 147 2.0 4.0 0.00 0.00 0.00 64 1010.2
20260504005023 70 143 2.0 5.0 0.00 0.00 0.00 65 1010.2
20260504004541 70 168 3.0 5.0 0.00 0.00 0.00 63 1010.4
20260504004024 70 165 3.0 6.0 0.00 0.00 0.00 64 1010.4
20260504003523 70 146 2.0 6.0 0.00 0.00 0.00 64 1010.4
20260504003038 71 150 3.0 6.0 0.00 0.00 0.00 62 1010.6
20260504002520 71 146 2.0 4.0 0.00 0.00 0.00 62 1010.5
20260504002020 71 206 1.0 4.0 0.00 0.00 0.00 63 1010.6
20260504001540 71 149 2.0 4.0 0.00 0.00 0.00 63 1010.7
20260504001023 72 202 2.0 5.0 0.00 0.00 0.00 62 1010.7
20260504000523 72 181 2.0 5.0 0.00 0.00 0.00 62 1010.7
20260504000046 73 153 1.0 5.0 0.00 0.00 0.00 61 1010.9
20260503235523 72 218 2.0 5.0 0.00 0.00 0.00 61 1010.9
20260503235023 72 242 2.0 5.0 0.00 0.00 0.00 61 1010.9
20260503234543 72 302 1.0 5.0 0.00 0.00 0.00 59 1011.1
20260503234023 72 272 3.0 6.0 0.00 0.00 0.00 58 1011.1
20260503233523 72 240 3.0 6.0 0.00 0.00 0.00 57 1011.1
20260503233045 72 235 2.0 6.0 0.00 0.00 0.00 59 1011.0
20260503232523 73 224 3.0 6.0 0.00 0.00 0.00 58 1011.1
20260503232022 73 203 3.0 6.0 0.00 0.00 0.00 56 1011.1
20260503231541 74 220 2.0 5.0 0.00 0.00 0.00 60 1011.1
20260503231023 74 218 3.0 7.0 0.00 0.00 0.00 53 1011.2
20260503230526 73 278 4.0 7.0 0.00 0.00 0.00 52 1011.2
20260503230038 72 280 2.0 7.0 0.00 0.00 0.00 55 1011.2
20260503225522 73 70 2.0 7.0 0.00 0.00 0.00 61 1011.3
20260503225022 73 146 1.0 7.0 0.00 0.00 0.00 53 1011.2
20260503224537 73 305 3.0 11.0 0.00 0.00 0.00 53 1011.5
20260503224022 73 247 3.0 11.0 0.00 0.00 0.00 53 1011.4
20260503223522 73 303 5.0 9.0 0.00 0.00 0.00 49 1011.5
20260503223044 73 260 5.0 9.0 0.00 0.00 0.00 51 1011.7
20260503222522 72 288 5.0 9.0 0.00 0.00 0.00 52 1011.8
20260503222022 72 302 5.0 10.0 0.00 0.00 0.00 56 1012.0
20260503221543 72 256 5.0 11.0 0.00 0.00 0.00 54 1012.1
20260503221022 72 285 7.0 11.0 0.00 0.00 0.00 53 1012.2
20260503220522 72 304 7.0 11.0 0.00 0.00 0.00 52 1012.2
20260503220041 72 300 7.0 11.0 0.00 0.00 0.00 54 1012.3
20260503215521 72 248 2.0 8.0 0.00 0.00 0.00 59 1012.4
20260503215021 72 298 3.0 8.0 0.00 0.00 0.00 58 1012.4
20260503214541 72 255 3.0 6.0 0.00 0.00 0.00 57 1012.5
20260503214022 72 217 3.0 6.0 0.00 0.00 0.00 58 1012.5
20260503213522 72 295 3.0 6.0 0.00 0.00 0.00 57 1012.4
20260503213040 72 275 2.0 6.0 0.00 0.00 0.00 60 1012.5
20260503212523 71 250 2.0 5.0 0.00 0.00 0.00 62 1012.7
20260503212023 71 303 2.0 10.0 0.00 0.00 0.00 61 1012.8
20260503211538 71 248 3.0 10.0 0.00 0.00 0.00 62 1012.7
20260503211022 71 285 4.0 9.0 0.00 0.00 0.00 60 1012.8
20260503210522 71 287 2.0 9.0 0.00 0.00 0.00 60 1013.0
20260503210043 71 207 1.0 7.0 0.00 0.00 0.00 61 1013.0
20260503205524 71 234 1.0 6.0 0.00 0.00 0.00 63 1013.1
20260503205022 70 113 0.0 8.0 0.00 0.00 0.00 65 1013.1
20260503204543 69 297 4.0 8.0 0.00 0.00 0.00 60 1013.1
20260503204022 69 295 5.0 8.0 0.00 0.00 0.00 59 1013.2
20260503203522 69 257 4.0 8.0 0.00 0.00 0.00 63 1013.3
20260503203049 69 308 3.0 8.0 0.00 0.00 0.00 62 1013.3
20260503202522 69 309 4.0 8.0 0.00 0.00 0.00 65 1013.3
20260503202021 69 292 4.0 7.0 0.00 0.00 0.00 62 1013.4
20260503201545 69 289 4.0 9.0 0.00 0.00 0.00 62 1013.4
20260503201022 69 299 3.0 9.0 0.00 0.00 0.00 61 1013.5
20260503200521 68 304 4.0 8.0 0.00 0.00 0.00 63 1013.6
20260503200038 68 274 3.0 8.0 0.00 0.00 0.00 63 1013.7
20260503195525 68 289 1.0 8.0 0.00 0.00 0.00 64 1013.8
20260503195021 67 279 3.0 11.0 0.00 0.00 0.00 67 1013.8
20260503194541 67 335 5.0 11.0 0.00 0.00 0.00 66 1013.9
20260503194022 66 321 8.0 13.0 0.00 0.00 0.00 64 1014.0
20260503193522 66 310 7.0 13.0 0.00 0.00 0.00 66 1014.0
20260503193046 66 314 9.0 13.0 0.00 0.00 0.00 66 1014.0
20260503192523 66 298 7.0 11.0 0.00 0.00 0.00 66 1014.0
20260503192022 66 313 7.0 11.0 0.00 0.00 0.00 67 1014.0
20260503191542 66 312 6.0 10.0 0.00 0.00 0.00 68 1013.9
20260503191022 66 280 7.0 10.0 0.00 0.00 0.00 68 1014.1
20260503190522 66 288 7.0 10.0 0.00 0.00 0.00 67 1014.2
20260503190045 67 310 4.0 10.0 0.00 0.00 0.00 65 1014.2
20260503185522 65 263 5.0 10.0 0.00 0.00 0.00 65 1014.2
20260503185022 65 300 7.0 10.0 0.00 0.00 0.00 67 1014.2
20260503184545 66 317 7.0 9.0 0.00 0.00 0.00 66 1014.3
20260503184024 66 311 5.0 8.0 0.00 0.00 0.00 67 1014.2
20260503183523 66 296 6.0 8.0 0.00 0.00 0.00 65 1014.3
20260503183040 66 285 6.0 8.0 0.00 0.00 0.00 67 1014.2
20260503182522 66 319 4.0 7.0 0.00 0.00 0.00 67 1014.3
20260503182024 67 292 4.0 6.0 0.00 0.00 0.00 67 1014.3
20260503181540 67 290 4.0 6.0 0.00 0.00 0.00 65 1014.4
20260503181022 67 307 4.0 6.0 0.00 0.00 0.00 67 1014.4
20260503180521 66 299 4.0 7.0 0.00 0.00 0.00 66 1014.3
20260503180045 66 304 3.0 7.0 0.00 0.00 0.00 66 1014.5
20260503175523 66 282 4.0 7.0 0.00 0.00 0.00 67 1014.6
20260503175022 66 297 4.0 6.0 0.00 0.00 0.00 68 1014.6
20260503174546 66 300 3.0 6.0 0.00 0.00 0.00 69 1014.6
20260503174022 66 276 4.0 6.0 0.00 0.00 0.00 69 1014.6
20260503173522 67 314 2.0 5.0 0.00 0.00 0.00 66 1014.6
20260503173049 67 115 2.0 5.0 0.00 0.00 0.00 68 1014.6
20260503172521 67 137 4.0 5.0 0.00 0.00 0.00 66 1014.5
20260503172021 67 167 2.0 4.0 0.00 0.00 0.00 71 1014.6
20260503171542 67 0 0.0 0.0 0.00 0.00 0.00 68 1014.7
20260503171022 66 0 0.0 3.0 0.00 0.00 0.00 71 1014.7
20260503170522 65 309 0.0 3.0 0.00 0.00 0.00 73 1014.8
20260503150522 59 302 5.0 8.0 0.00 0.00 0.00 85 1015.2
20260503131023 50 0 1.0 1.0 0.00 0.00 0.00 96 1015.0
20260503130523 50 0 0.0 1.0 0.00 0.00 0.00 95 1015.0
20260503110522 51 82 0.0 3.0 0.00 0.00 0.00 93 1015.0
20260503081543 54 299 0.0 1.0 0.00 0.00 0.00 88 1014.7
20260503081022 54 299 1.0 1.0 0.00 0.00 0.00 87 1014.7
20260503080522 54 354 0.0 1.0 0.00 0.00 0.00 87 1014.8
20260503072521 56 0 0.0 1.0 0.00 0.00 0.00 85 1014.6
20260503072021 56 0 0.0 1.0 0.00 0.00 0.00 85 1014.5
20260503071551 57 0 0.0 1.0 0.00 0.00 0.00 85 1014.5
20260503071021 57 0 0.0 1.0 0.00 0.00 0.00 85 1014.4
20260503070521 57 0 0.0 0.0 0.00 0.00 0.00 84 1014.5